Regional Weather Roundup
Issued by NWS Sterling, VA

Home | Current Version | Previous Version | Graphics & Text | Print | Product List | Glossary On
Versions: 1 2 3 4 5 6 7 8 9 10 11 12 13 14 15 16 17 18 19 20 21 22 23 24 25 26 27 28 29 30 31 32 33 34 35 36 37 38 39 40 41 42 43 44 45 46 47 48 49 50
000
ASUS41 KLWX 300810
RWRLWX

REGIONAL WEATHER ROUNDUP
NATIONAL WEATHER SERVICE BALTIMORE MD/WASHINGTON DC
400 AM EDT SUN AUG 30 2015

Note: "FAIR" indicates few or no clouds below 12,000 feet
with no significant weather and/or obstructions to visibility.
 TC=TEMPERATURE CELSIUS

 * =Non NWS site. Station does not report precipitation (e.g. rain,
    snow, etc.), thunder, or fog.

DCZ001-MDZ009-015-VAZ040>042-051-053>054-300900-
WASHINGTON METRO

CITY           SKY/WX    TMP DP  RH WIND       PRES   REMARKS
WASHINGTON NAT MOCLDY    71  64  78 S9        30.10S
DULLES         CLEAR     69  63  81 S7        30.09F
ANDREWS AFB    CLEAR     68  63  82 SW6       30.10S
FT BELVOIR     CLEAR     66  63  90 CALM      30.10S
QUANTICO       CLEAR     71  62  73 SW8G17    30.11S
COLLEGE PARK*  CLEAR     72  63  73 CALM      30.09F
LEESBURG*      CLEAR     68  68 100 CALM      30.11S
MANASSAS*      CLEAR     66  64  94 CALM      30.10S
GAITHERSBURG*  CLEAR     68  61  77 CALM      30.14S

$$

MDZ006>007-011-014-300900-
BALTIMORE METRO

CITY           SKY/WX    TMP DP  RH WIND       PRES   REMARKS
BWI AIRPORT    PTCLDY    66  63  90 CALM      30.09F
MD SCIENCE CTR   N/A     71  63  75 MISG      30.10S
MARTIN STATE   CLEAR     72  68  88 S6        30.11S
ANNAPOLIS      CLEAR     70  63  78 VRB3      30.09S
FORT MEADE*    CLEAR     61  59  94 CALM      30.12S

$$

MDZ012-015-019>023-300900-
MARYLAND EASTERN SHORE

CITY           SKY/WX    TMP DP  RH WIND       PRES   REMARKS
OCEAN CITY     CLEAR     63  60  90 CALM      30.11S
SALISBURY      PTCLDY    63  61  93 CALM      30.11R
BAY BRIDGE AP*   N/A     72  63  73 S6        30.10S
CAMBRIDGE*     CLEAR     66  63  88 CALM      30.10S

$$

MDZ017>025-300900-
SOUTHERN MARYLAND

CITY           SKY/WX    TMP DP  RH WIND       PRES   REMARKS
PATUXENT RIVER CLEAR     64  61  90 CALM      30.10S
ST INIGOES     CLEAR     72  65  78 SW7       30.10S
LEONARDTOWN*   CLEAR     68  63  83 CALM      30.12S

$$

MDZ003>005-300900-
NORTH CENTRAL MARYLAND

CITY           SKY/WX    TMP DP  RH WIND       PRES   REMARKS
FREDERICK*     CLEAR     66  66 100 CALM      30.12S
HAGERSTOWN APT CLEAR     70  63  78 CALM      30.10R
WESTMINSTER*   CLEAR     68  64  88 S3        30.11S

$$

MDZ501>502-300900-
WESTERN MARYLAND

CITY           SKY/WX    TMP DP  RH WIND       PRES   REMARKS
OAKLAND*       CLEAR     63  55  77 SW6       30.20S
CUMBERLAND*    CLEAR     63  63 100 CALM      30.15S

$$

VAZ025>031-300900-
SHENANDOAH VALLEY

CITY           SKY/WX    TMP DP  RH WIND       PRES   REMARKS
WINCHESTER*    CLEAR     68  63  83 SW3       30.09F
FRONT ROYAL*   FAIR      64  61  88 S6        30.09F
LURAY*         FAIR      61  61 100 S3        30.12S
NEW MARKET*    FAIR      61  60  96 CALM      30.12S
STAUNTON*      MOCLDY    66  61  84 CALM      30.16S
WAYNESBORO*    FAIR      65  60  85 CALM      30.15S

$$

WVZ021-048>050-054>055-300900-
EASTERN WEST VIRGINIA PANHANDLE

CITY           SKY/WX    TMP DP  RH WIND       PRES   REMARKS
MARTINSBURG    CLEAR     63  62  97 CALM      30.10R
PETERSBURG*    CLEAR     58  58  98 CALM      30.14S FOG

$$

VAZ036>039-050-300900-
CENTRAL FOOTHILLS

CITY           SKY/WX    TMP DP  RH WIND       PRES   REMARKS
CHARLOTTESVILL PTCLDY    68  63  84 SW6       30.11S
CULPEPER*      CLEAR     63  62  97 CALM      30.11F
ORANGE*        MOCLDY    64  63  94 CALM      30.13S
GORDONSVILLE*  FAIR      63  62  97 CALM      30.11F
WARRENTON*     FAIR      69  65  89 S5        30.10S

$$

VAZ055>057-300900-
NORTH AND CENTRAL PIEDMONT

CITY           SKY/WX    TMP DP  RH WIND       PRES   REMARKS
FREDERICKSBRG* PTCLDY    69  64  83 CALM      30.10S
STAFFORD*      CLEAR     67  62  83 CALM      30.14F

$$

NCZ024-NYZ072-PAZ021-071-VAZ022-071-300900-
OTHER REGIONAL OBSERVATIONS

CITY           SKY/WX    TMP DP  RH WIND       PRES   REMARKS
NEW YORK CITY  CLEAR     74  60  61 W5        30.11F
PHILADELPHIA   MOCLDY    71  61  70 S6        30.11S
PITTSBURGH     MOCLDY    69  62  78 S3        30.08F
ROANOKE        CLOUDY    68  61  78 CALM      30.16F
RICHMOND       PTCLDY    67  61  81 SW3       30.12S
RALEIGH        CLOUDY    68  61  78 CALM      30.14S

$$

ANZ530>537-300900-
MARINE OBSERVATIONS

STATION/POSITION TIME  TEMP    WIND        PRES
                       AIR SEA DIR/SP/G
                 (UTC) (F)     (DEG/KT/KT) (MB)
THOMAS PT LIGHT  0700   74 78  200/ 15/ 17 1019.6F

$$



USA.gov is the U.S. government's official web portal to all federal, state and local government web resources and services.